Location: Newark
(18.4314°N, 64.6231°W)
Time: 16:03:10
(UTC+00:00)

Hubble Space Telescope - Visible Passes

Search period start: 21 July 2019 00:00
Search period end: 31 July 2019 00:00
Orbit: 536 x 540 km, 28.5° (Epoch: 20 July)

Date Brightness Start Highest point End Pass type
(mag) Time Alt. Az. Time Alt. Az. Time Alt. Az.
22 Jul 3.4 07:55:45 11° SE 07:55:45 11° SE 07:56:15 10° SE visible
23 Jul 3.3 07:45:53 13° SE 07:45:53 13° SE 07:46:55 10° ESE visible
23 Jul 0.8 09:21:17 10° WSW 09:25:24 78° SSE 09:29:30 10° ENE visible
24 Jul 3.3 07:35:59 15° ESE 07:35:59 15° ESE 07:37:00 10° E visible
24 Jul 0.8 09:11:19 14° WSW 09:14:53 80° NNW 09:19:00 10° ENE visible
25 Jul 3.5 07:26:02 14° E 07:26:02 14° E 07:26:51 10° E visible
25 Jul 1.0 09:01:22 17° W 09:04:22 61° NNW 09:08:27 10° ENE visible
26 Jul 3.7 07:16:04 13° E 07:16:04 13° E 07:16:34 10° E visible
26 Jul 1.4 08:51:24 21° W 08:53:52 47° NNW 08:57:52 10° NE visible
27 Jul 4.0 07:06:04 11° ENE 07:06:04 11° ENE 07:06:11 10° ENE visible
27 Jul 1.7 08:41:24 23° WNW 08:43:24 38° NNW 08:47:16 10° NE visible
28 Jul 2.1 08:31:22 24° NW 08:32:57 32° NNW 08:36:40 10° NE visible
29 Jul 2.3 08:21:20 24° NW 08:22:30 28° NNW 08:26:05 10° NE visible
30 Jul 2.4 08:11:18 23° NNW 08:12:05 24° N 08:15:29 10° NE visible
